Regional Weather Roundup
Issued by NWS

Home | Current Version | Previous Version | Text Only | Print | Product List | Glossary Off
Versions: 1 2 3 4 5 6 7 8 9 10 11 12 13 14 15 16 17 18 19 20 21 22 23 24 25 26 27

000
ASUS45 KTFX 222010
RWRMT
MONTANA REGIONAL WEATHER ROUNDUP
NATIONAL WEATHER SERVICE GREAT FALLS MT
100 PM MST THU FEB 22 2018

NOTE: "FAIR" INDICATES FEW OR NO CLOUDS BELOW 12000 FEET WITH NO
SIGNIFICANT WEATHER AND/OR OBSTRUCTIONS TO VISIBILITY.

MTZ001>007-043-222100-
WEST OF THE DIVIDE

CITY           SKY/WX    TMP DP  RH WIND       PRES   REMARKS
KALISPELL      FAIR      22   6  50 NE17G23   30.12F WCI   8
MISSOULA       FAIR      21   9  59 N10       30.07F WCI  10
BUTTE          FAIR      17   6  62 NW3       29.91F
MULLAN PASS    LGT SNOW  12   8  84 CALM      29.88S FOG
ANACONDA         N/A     16   3  57 CALM      29.97F
DEER LODGE       N/A     18   5  57 CALM      30.01F
HAMILTON         N/A     19   9  63 MISG      30.03F
PLAINS           N/A     20   8  59 CALM      30.15F
RONAN            N/A     14   7  73 CALM      30.14F
$$

MTZ008-052>055-222100-
SOUTHWEST MONTANA

CITY           SKY/WX    TMP DP  RH WIND       PRES   REMARKS
BOZEMAN        CLOUDY    15   4  61 NE3       30.02F
DILLON         FAIR      11   8  88 NE9       29.92F WCI  -2
ENNIS          PTSUNNY   23  10  58 N13       29.94F WCI  11
W YELLOWSTONE  PTSUNNY   16   9  73 CALM      29.86F
THREE FORKS      N/A     14   4  64 W8        30.02F WCI   3
TWIN BRIDGES     N/A     18   5  56 N16       29.93F WCI   3
$$

MTZ009-010-012-014-046-048-049-054-222100-
EAST SLOPES AND CENTRAL MONTANA

CITY           SKY/WX    TMP DP  RH WIND       PRES   REMARKS
CUT BANK       CLOUDY    12   7  80 NW8       30.16F WCI   0
GREAT FALLS    CLOUDY    10  -1  61 NW7       30.17S WCI  -1
HELENA         CLOUDY    19   3  49 NW7       30.08F WCI  10
AUGUSTA        FAIR      10   4  78 N17       30.11S WCI  -8
CHOTEAU          N/A     12   5  73 N15       30.17S WCI  -4
RAYNESFORD     PTSUNNY   10   0  66 NW6       30.13F WCI   0
WHITE SULPHUR    N/A      9   0  66 CALM      30.00F
$$

MTZ011-013-016-021-045-047-050-051-222100-
NORTH CENTRAL MONTANA

CITY           SKY/WX    TMP DP  RH WIND       PRES   REMARKS
HAVRE          FAIR      -2  -8  76 SW10      30.27S WCI -19
LEWISTOWN      CLOUDY    10   0  63 W8        30.11R WCI  -2
N BAR RANCH    FAIR      18  -2  41 E9        30.08F WCI   6
CHINOOK          N/A      0  -8  71 CALM      30.28S
GEYSER         PTSUNNY   12   4  71 W8        30.11F WCI   0
STANFORD       PTSUNNY   13  -2  51 NE3       30.09S
$$

MTZ017>020-022>027-061-062-222100-
NORTHEAST MONTANA

CITY           SKY/WX    TMP DP  RH WIND       PRES   REMARKS
GLASGOW        FAIR      -7 -14  71 NW17      30.23F HAZE    WCI -30
GLENDIVE       FAIR       7  -2  66 SW3       30.20F
JORDAN           N/A      6  -3  66 NW5       30.20F
MALTA          SUNNY     -8 -13  77 SW7       30.25F WCI -22
SIDNEY         FAIR      10  -2  58 SW3       30.24
WOLF POINT     FAIR      -2 -10  69 W13       30.26F WCI -20
PLENTYWOOD       N/A     10  -2  56 CALM      30.20S
POPLAR           N/A     -2  -9  71 W8        30.26F WCI -17
SCOBEY           N/A      5  -5  63 CALM      30.16F
$$

MTZ028>42-056>058-222100-
SOUTHCENTRAL AND SOUTHEAST MONTANA

CITY           SKY/WX    TMP DP  RH WIND       PRES   REMARKS
BAKER          FAIR      14   5  67 CALM      30.14F
BILLINGS       FAIR      14   3  61 S5        30.09F
LIVINGSTON     FAIR      18   7  62 E16       30.00F WCI   3
MILES CITY     FAIR      -3  -6  87 S6        30.19F WCI -15
BIG TIMBER     MOSUNNY   16   5  62 NE8       30.06F WCI   5
EKALAKA          N/A     21   2  44 W6        30.04F WCI  13
FORSYTH          N/A      1  -8  66 W3        30.18F
LAUREL           N/A     14   1  57 CALM      30.11F
$$

REGIONAL REPORTS...DAKOTAS

CITY           SKY/WX    TMP DP  RH WIND       PRES   REMARKS
WILLISTON      FAIR       8  -2  63 W6        30.25F WCI  -2
MINOT          FAIR      19   3  49 N6        30.22F WCI  11
DICKINSON      FAIR      16   2  54 NW3       30.14F
BEACH          FAIR      16   3  57 W7        30.19F WCI   6
CROSBY         FAIR      10   1  67 SW8       30.22S WCI  -1
TIOGA          FAIR       7   0  72 W6        30.21F WCI  -3
WATFORD CITY   FAIR      12   1  62 SW3       30.21F
BISMARCK       FAIR      14   5  67 CALM      30.26F
GRAND FORKS    FAIR      15   8  73 S16       30.38F WCI  -1
FARGO          FAIR      22  14  71 S13       30.40F WCI  10
BUFFALO SD       N/A      5  -4  66 E5        30.04F
RAPID CITY     FAIR      12   6  77 E3        30.05F
$$

REGIONAL REPORTS...WYOMING/IDAHO/WASHINGTON

CITY           SKY/WX    TMP DP  RH WIND       PRES   REMARKS
GILLETTE       FAIR      24   4  42 CALM      30.00F
SHERIDAN       FAIR      18   2  49 NW3       30.03F
BUFFALO WY     FAIR      27  -1  30 NE3       29.98F
YELLOWSTONE LA   N/A     11  -2  56 VRB3      29.86
IDAHO FALLS    FAIR      29   7  39 VRB5      29.94F
SALMON         PTSUNNY   33  15  47 S3        29.92F
BOISE          FAIR      29  19  66 W7        30.02S WCI  22
SPOKANE        PTSUNNY   23  13  65 N12       30.14F WCI  12
$$

REGIONAL REPORTS...ALBERTA

CITY           SKY/WX    TMP DP  RH WIND       PRES   REMARKS
CALGARY        PTSUNNY   19   7  58 NE8       30.16S WCI   9
CARDSTON         N/A     19   7  58 NW5         N/A
EDMONTON       SUNNY     23  10  58 W10       30.18F WCI  12
FORT MCMURRAY  MOSUNNY   27  14  59 W10       30.06F WCI  17
HIGH LEVEL     MOSUNNY   28  14  54 VRB2      30.03F
LETHBRIDGE     PTSUNNY   16   7  67 W9        30.21F WCI   4
LLOYDMINSTER   MOSUNNY   18  10  73 W8        30.15S WCI   7
MEDICINE HAT   FLURRIES   9   1  72 SW13      30.25F WCI  -7
MILK RIVER       N/A     18   7  62 W8          N/A  WCI   7
ONEFOUR          N/A      5   0  78 W13         N/A  WCI -12
PEACE RIVER    MOSUNNY   19  10  68 SW9       30.12F WCI   9
PINCHER CREEK  LGT SNOW  12   7  79 CALM      30.16F
WATERTON GATE    N/A     18   7  62 N2          N/A
$$

REGIONAL REPORTS...SASKATCHEWAN

CITY           SKY/WX    TMP DP  RH WIND       PRES   REMARKS
CYPRESS HILLS    N/A     10   5  79 NW8         N/A  WCI  -1
ESTEVAN        MOSUNNY   12   0  57 SW8       30.21F WCI   1
MOOSE JAW        N/A     14   3  62 W9          N/A  WCI   2
PRINCE ALBERT  MOSUNNY   18   5  57 W14       30.15R WCI   4
REGINA         PTSUNNY    7   0  72 SW8       30.18F WCI  -6
ROCKGLEN         N/A     14  -2  48 NW8         N/A  WCI   3
SASKATOON      MOSUNNY   12   5  73 SW12      30.18F WCI  -2
SWIFT CURRENT  FLURRIES  10   1  67 W15       30.15R WCI  -6
VAL MARIE        N/A     -8 -13  77 NW1         N/A
$$




USA.gov is the U.S. government's official web portal to all federal, state and local government web resources and services.